Tracking 19638 objects as of 20-May-2019
HD Live streaming from Space Station
objects crossing your sky now

COSMOS 2371

Track COSMOS 2371 now!
COSMOS 2371 is classified as:


NORAD ID: 26394
Int'l Code: 2000-036A
Perigee: 35,779.2 km
Apogee: 35,809.7 km
Inclination: 12.5 °
Period: 1,436.1 minutes
Semi major axis: 42165 km
RCS: 11.76 m2 (large)
Launch date: July 4, 2000
Source: Commonwealth of Independent States (former USSR) (CIS)
Launch site: TYURATAM MISSILE AND SPACE COMPLEX (TTMTR)

Military data relay satellite; normal four-satellite complement (called Sokol under commercial use).
aabbcc
Your satellite tracking list
Your tracking list is empty




NASA's NSSDC Master Catalog

Two Line Element Set (TLE):
1 26394U 00036A   19138.67481778 -.00000164  00000-0  00000+0 0  9994
2 26394  12.4901  26.6784 0003616   4.7557 167.2705  1.00269170 69098
Source of the keplerian elements: AFSPC